Change the Weather History Date:

Wednesday, January 2, 2013

  Actual Average (KGON) Record (KGON)
Temperature  
Mean Temperature 22 °F -  
Max Temperature 27 °F 39 °F 55 °F (1979)
Min Temperature 18 °F 23 °F -1 °F (1968)
Degree Days  
Heating Degree Days 42    
Moisture  
Dew Point 8 °F    
Average Humidity 52    
Maximum Humidity 62    
Minimum Humidity 38    
Precipitation  
Precipitation 0.00 in - - ()
Sea Level Pressure  
Sea Level Pressure 30.02 in    
Wind  
Wind Speed 6 mph (WNW)    
Max Wind Speed 12 mph    
Max Gust Speed 23 mph    
Visibility 10 miles    
Events      
Averages and records for this station are not official NWS values.
T = Trace of Precipitation, MM = Missing Value Source: NWS Daily Summary

Daily Weather History Graph

Daily Weather History Graph

Search for Another Location

Airport or City:

Trip Planner

Search our weather history database for the weather conditions in past years. The results will help you decide how hot, cold, wet, or windy it might be!

Date:

Astronomy

Jan. 02, 2013 Rise Set
Actual Time 7:13 AM EST 4:29 PM EST
Civil Twilight 6:42 AM EST 5:00 PM EST
Nautical Twilight 6:07 AM EST 5:35 PM EST
Astronomical Twilight 5:34 AM EST 6:09 PM EST
Moon 10:03 PM EST (1/2) 9:50 AM EST (1/2)
Length of Visible Light 10h 18m
Length of Day
9h 16m
Waning Gibbous, 75% of the Moon is Illuminated
Jan 2
Waning Gibbous
Jan 4
Last Quarter
Jan 11
New
Jan 18
First Quarter
Jan 26
Full

Hourly Weather History & Observations

Time (EST) Temp. Windchill Dew Point Humidity Pressure Visibility Wind Dir Wind Speed Gust Speed Precip Events Conditions
12:53 AM 21.9 °F 12.5 °F 5.0 °F 48% 29.96 in 10.0 mi NW 8.1 mph - N/A   Clear
1:53 AM 21.0 °F 12.4 °F 3.9 °F 48% 29.99 in 10.0 mi Variable 6.9 mph - N/A   Clear
2:53 AM 19.9 °F 13.4 °F 6.1 °F 55% 29.99 in 10.0 mi Variable 4.6 mph - N/A   Clear
3:53 AM 19.0 °F 12.3 °F 8.1 °F 62% 29.98 in 10.0 mi Variable 4.6 mph - N/A   Clear
4:53 AM 19.0 °F 12.3 °F 8.1 °F 62% 29.98 in 10.0 mi Variable 4.6 mph - N/A   Clear
5:53 AM 19.0 °F 10.0 °F 8.1 °F 62% 29.99 in 10.0 mi Variable 6.9 mph - N/A   Clear
6:53 AM 18.0 °F 7.7 °F 7.0 °F 62% 29.99 in 10.0 mi NW 8.1 mph - N/A   Clear
7:53 AM 18.0 °F 11.1 °F 7.0 °F 62% 29.99 in 10.0 mi NW 4.6 mph - N/A   Clear
8:53 AM 19.0 °F 13.9 °F 7.0 °F 59% 30.00 in 10.0 mi Variable 3.5 mph - N/A   Clear
9:53 AM 21.9 °F 14.5 °F 7.0 °F 53% 30.02 in 10.0 mi Variable 5.8 mph - N/A   Clear
10:53 AM 25.0 °F 18.1 °F 8.1 °F 49% 30.01 in 10.0 mi West 5.8 mph - N/A   Clear
11:53 AM 25.0 °F 18.1 °F 9.0 °F 51% 29.99 in 10.0 mi Variable 5.8 mph - N/A   Clear
12:53 PM 26.1 °F 18.4 °F 9.0 °F 49% 29.97 in 10.0 mi West 6.9 mph - N/A   Clear
1:53 PM 26.1 °F 19.4 °F 10.9 °F 53% 29.96 in 10.0 mi Variable 5.8 mph - N/A   Clear
2:53 PM 27.0 °F 20.5 °F 10.9 °F 51% 29.99 in 10.0 mi WSW 5.8 mph - N/A   Clear
3:53 PM 27.0 °F 21.6 °F 10.9 °F 51% 30.01 in 10.0 mi West 4.6 mph - N/A   Mostly Cloudy
4:53 PM 27.0 °F - 10.9 °F 51% 30.03 in 10.0 mi Calm Calm - N/A   Partly Cloudy
5:53 PM 27.0 °F 23.0 °F 10.9 °F 51% 30.04 in 10.0 mi Variable 3.5 mph - N/A   Clear
6:53 PM 27.0 °F 21.6 °F 10.9 °F 51% 30.07 in 10.0 mi WNW 4.6 mph - N/A   Clear
7:53 PM 27.0 °F 20.5 °F 10.9 °F 51% 30.08 in 10.0 mi WNW 5.8 mph - N/A   Clear
8:53 PM 27.0 °F 19.5 °F 10.9 °F 51% 30.08 in 10.0 mi WNW 6.9 mph - N/A   Clear
9:53 PM 26.1 °F 16.8 °F 7.0 °F 44% 30.10 in 10.0 mi NW 9.2 mph 17.3 mph N/A   Clear
10:53 PM 25.0 °F 16.3 °F 5.0 °F 43% 30.11 in 10.0 mi WNW 8.1 mph - N/A   Clear
11:53 PM 24.1 °F 13.1 °F 1.9 °F 38% 30.11 in 10.0 mi WNW 11.5 mph 23.0 mph N/A   Clear